EW4613 Weather Reports


time (UTC)temp
C
wind
direction
speed
KPH
gust
KPH
rain 1hr
cm
rain 24hr
cm
rain mn
cm
humidity
%
barometer
mb
20260508064521 10 29 0.0 4.8 0.00 0.00 0.00 82 1017.7
20260508063020 11 340 0.0 6.4 0.00 0.00 0.00 81 1017.6
20260508061523 11 342 3.2 6.4 0.00 0.00 0.00 81 1017.5
20260508060018 11 360 0.0 0.0 0.00 0.00 0.00 81 1017.5
20260508054521 11 355 0.0 3.2 0.00 0.00 0.00 80 1017.6
20260508053016 12 336 3.2 8.0 0.00 0.00 0.00 79 1017.5
20260508051523 12 322 3.2 9.7 0.00 0.00 0.00 78 1017.5
20260508050018 12 289 4.8 14.5 0.00 0.00 0.00 77 1017.4
20260508044514 13 304 4.8 12.9 0.00 0.00 0.00 76 1017.3
20260508043016 13 336 4.8 12.9 0.00 0.00 0.00 74 1017.3
20260508041513 14 331 4.8 17.7 0.00 0.00 0.00 73 1017.2
20260508040014 15 299 6.4 14.5 0.00 0.00 0.00 72 1017.0
20260508034512 15 304 3.2 12.9 0.00 0.00 0.00 71 1016.8
20260508033011 16 296 4.8 12.9 0.00 0.00 0.00 69 1016.6
20260508031511 16 325 3.2 12.9 0.00 0.00 0.00 68 1016.4
20260508030010 17 355 3.2 8.0 0.00 0.00 0.00 66 1016.3
20260508024511 18 332 3.2 9.7 0.00 0.00 0.00 64 1016.2
20260508023012 18 333 3.2 8.0 0.00 0.00 0.00 62 1016.2
20260508021508 19 296 1.6 16.1 0.00 0.00 0.00 61 1016.1
20260508020007 20 339 3.2 6.4 0.00 0.00 0.00 59 1016.1
20260508014506 21 340 1.6 6.4 0.00 0.00 0.00 55 1016.2
20260508013005 22 28 1.6 6.4 0.00 0.00 0.00 55 1016.2
20260508011504 22 319 4.8 12.9 0.00 0.00 0.00 60 1016.3
20260508010004 22 182 0.0 6.4 0.00 0.00 0.00 58 1016.4
20260508004601 22 92 1.6 6.4 0.00 0.00 0.00 59 1016.4
20260508003100 21 139 3.2 9.7 0.00 0.00 0.00 61 1016.4
20260508001558 21 126 3.2 8.0 0.00 0.00 0.00 62 1016.5
20260508000055 21 191 3.2 11.3 0.00 0.00 0.00 59 1016.6
20260507234601 22 196 4.8 11.3 0.00 0.00 0.00 59 1016.7
20260507233049 21 118 1.6 8.0 0.00 0.00 0.00 60 1016.8
20260507231552 21 178 1.6 9.7 0.00 0.00 0.00 61 1017.0
20260507230050 21 142 3.2 6.4 0.00 0.00 0.00 57 1017.2
20260507224542 21 136 3.2 6.4 0.00 0.00 0.00 59 1017.6
20260507223038 20 182 1.6 6.4 0.00 0.00 0.00 60 1017.7
20260507221534 20 263 1.6 8.0 0.00 0.00 0.00 62 1017.9
20260507220032 20 80 4.8 9.7 0.00 0.00 0.00 61 1018.2
20260507214532 19 360 1.6 9.7 0.00 0.00 0.00 61 1018.5
20260507213029 18 84 0.0 9.7 0.00 0.00 0.00 62 1018.5
20260507211525 18 182 1.6 11.3 0.00 0.00 0.00 64 1018.7
20260507210023 18 263 1.6 12.9 0.00 0.00 0.00 62 1018.9
20260507204520 18 113 3.2 9.7 0.00 0.00 0.00 64 1019.1
20260507203016 17 35 1.6 8.0 0.00 0.00 0.00 65 1019.4
20260507201516 17 307 3.2 11.3 0.00 0.00 0.00 69 1019.5
20260507200012 17 93 6.4 12.9 0.00 0.00 0.00 67 1019.6
20260507194513 16 325 1.6 9.7 0.00 0.00 0.00 68 1019.8
20260507193009 17 15 1.6 9.7 0.00 0.00 0.00 67 1019.9
20260507191506 16 192 1.6 9.7 0.00 0.00 0.00 69 1020.0
20260507190004 16 347 1.6 12.9 0.00 0.00 0.00 72 1020.3
20260507184503 15 92 8.0 16.1 0.00 0.00 0.00 73 1020.4
20260507183107 16 344 3.2 12.9 0.00 0.00 0.00 69 1020.3
20260507181557 15 142 0.0 11.3 0.00 0.00 0.00 72 1020.4
20260507180053 14 360 0.0 4.8 0.00 0.00 0.00 78 1020.5
20260507174604 15 360 3.2 8.0 0.00 0.00 0.00 83 1020.7
20260507173056 14 133 0.0 3.2 0.00 0.00 0.00 81 1020.7
20260507171603 13 304 0.0 6.4 0.00 0.00 0.00 83 1020.7
20260507170142 13 277 1.6 3.2 0.00 0.00 0.00 84 1020.7
20260507164553 13 57 0.0 4.8 0.00 0.00 0.00 83 1020.8
20260507163037 13 206 0.0 4.8 0.00 0.00 0.00 85 1020.7
20260507161540 12 326 0.0 3.2 0.00 0.00 0.00 85 1020.7
20260507160036 12 323 3.2 6.4 0.00 0.00 0.00 86 1020.8
20260507154533 12 289 3.2 6.4 0.00 0.00 0.00 86 1020.8
20260507153025 12 61 0.0 3.2 0.00 0.00 0.00 87 1020.9
20260507151535 11 314 0.0 4.8 0.00 0.00 0.00 89 1020.9
20260507150017 11 241 1.6 3.2 0.00 0.00 0.00 89 1021.0
20260507144514 11 256 0.0 0.0 0.00 0.00 0.00 90 1021.0
20260507143011 11 313 0.0 3.2 0.00 0.00 0.00 90 1020.9
20260507141509 11 284 0.0 0.0 0.00 0.00 0.00 90 1020.8
20260507140009 11 285 3.2 4.8 0.00 0.00 0.00 90 1020.8
20260507134502 11 330 0.0 3.2 0.00 0.00 0.00 91 1020.7
20260507133059 10 324 0.0 4.8 0.00 0.00 0.00 91 1020.6
20260507131615 10 333 0.0 3.2 0.00 0.00 0.00 91 1020.6
20260507130056 10 306 0.0 0.0 0.00 0.00 0.00 90 1020.7
20260507124556 10 348 0.0 3.2 0.00 0.00 0.00 90 1020.7
20260507123051 10 289 1.6 4.8 0.00 0.00 0.00 90 1020.7
20260507121550 11 309 0.0 4.8 0.00 0.00 0.00 90 1020.9
20260507120047 11 350 1.6 4.8 0.00 0.00 0.00 89 1021.0
20260507114543 11 283 0.0 0.0 0.00 0.00 0.00 89 1021.0
20260507113038 11 283 0.0 0.0 0.00 0.00 0.00 90 1021.1
20260507111534 11 283 0.0 0.0 0.00 0.00 0.00 90 1021.1
20260507110040 11 283 0.0 0.0 0.00 0.00 0.00 90 1021.2
20260507104527 11 283 0.0 0.0 0.00 0.00 0.00 89 1021.1
20260507103024 11 283 0.0 0.0 0.00 0.00 0.00 89 1021.2
20260507101520 11 283 0.0 0.0 0.00 0.00 0.00 89 1021.3
20260507100012 11 283 0.0 0.0 0.00 0.00 0.00 89 1021.4
20260507094509 11 283 0.0 0.0 0.00 0.00 0.00 89 1021.5
20260507093004 11 325 0.0 0.0 0.00 0.00 0.00 89 1021.6
20260507091641 11 304 0.0 3.2 0.00 0.00 0.00 88 1021.7
20260507090106 11 313 0.0 3.2 0.00 0.00 0.00 89 1021.7
20260507084558 11 266 1.6 4.8 0.00 0.00 0.00 89 1021.8
20260507083056 10 292 0.0 4.8 0.00 0.00 0.00 89 1021.9
20260507081554 10 271 3.2 6.4 0.00 0.00 0.00 89 1021.9
20260507080051 10 272 1.6 4.8 0.00 0.00 0.00 89 1021.9
20260507074548 11 267 0.0 4.8 0.00 0.00 0.00 88 1022.0
20260507073043 11 303 1.6 4.8 0.00 0.00 0.00 87 1022.1
20260507071538 11 278 1.6 6.4 0.00 0.00 0.00 87 1022.0
20260507070041 11 300 4.8 9.7 0.00 0.00 0.00 86 1022.0